[[{"header":{"parameterUnit":"m.s-1","parameterCategory":1,"la1":30.2991,"la2":30.254,"lo1":-89.0895,"lo2":-89.0444,"dy":0.0017,"dx":0.0017,"nx":28,"ny":28,"refTime":"2024-05-24T21:00:00:Z","depth":0,"parameterNumber":2,"parameterNumberName":"U-component_of_WINDS"},"data":[0,0,0,0,0,0,0,0,0,0,0,0,0,0,0,0,0,0,0,0,0,0,0,0,0,0,0,0,0,0,0,0,0,0,0,0,0,0,0,0,0,0,0,0,0,0,0,0,0,0,0,0,0,0,0,0,0,0,0.9301,0.9302,0,0.9355,0.9356,0.9357,0.9356,0.9355,0.9354,0.9354,0.9409,0.9412,0.9414,0,0,0,0,0,0,0,0,0,0,0,0,0,0.9196,0.9198,0.9301,0.9302,0.9302,0.9355,0.9356,0.9357,0.9356,0.9355,0.9354,0.9353,0.9409,0.9411,0.9414,0,0,0,0,0,0,0,0,0,0,0,0,0,0.9245,0.9199,0.9301,0.9308,0.931,0.9355,0.9356,0.9357,0.9356,0.9355,0.9354,0.9353,0.9408,0.9411,0.9414,0.9456,0,0,0.9424,0.9426,0,0,0,0,0,0,0,0,0.9242,0.9249,0.9307,0.9308,0.9309,0.9348,0.934,0.939,0.9356,0.9338,0.9354,0.9352,0.939,0.9394,0.9407,0.9459,0.9461,0.9424,0.9426,0.9428,0.9429,0,0,0,0,0,0,0,0.9239,0.9247,0.9323,0.9307,0.9309,0.9309,0.9315,0.9349,0.937,0.934,0.934,0.9346,0.939,0.9404,0.9408,0.9462,0.9424,0.9427,0.9429,0.943,0.9551,0.9552,0,0,0,0,0,0,0.9234,0.9244,0.9321,0.9324,0.9272,0.9312,0.9318,0.9337,0.9369,0.9373,0.9347,0.9346,0.9399,0.9405,0.941,0.9462,0.9428,0.9431,0.9433,0.955,0.9551,0.9552,0,0,0,0,0,0,0.9232,0.9241,0.9319,0.9284,0.9294,0.9315,0.9335,0.9338,0.9352,0.9375,0.9378,0.9357,0.9398,0.9406,0.9445,0.9464,0.9432,0.9435,0.9548,0.955,0.9552,0.9564,0,0,0,0,0,0,0.9229,0.924,0.9256,0.9284,0.9296,0.9352,0.9336,0.934,0.9357,0.9356,0.9385,0.9389,0.9398,0.944,0.9448,0.9467,0.9438,0.9547,0.9549,0.9551,0.9562,0.9567,0.957,0,0,0,0,0,0.9225,0.9258,0.9257,0.9266,0.9316,0.9353,0.936,0.9369,0.9359,0.9375,0.939,0.9388,0.946,0.9444,0.9453,0.9474,0.9545,0.9548,0.9551,0.9561,0.9566,0.957,0,0,0,0,0,0,0.9231,0.9261,0.9261,0.9304,0.9326,0.9353,0.9374,0.9374,0.94,0.9398,0.9409,0.9415,0.9454,0.9468,0.9449,0.9516,0.9501,0.9506,0.9506,0.9511,0.9514,0.951,0.944,0,0,0,0,0,0.9237,0.9265,0.929,0.9325,0.9336,0.9353,0.937,0.9375,0.9399,0.9408,0.9426,0.9448,0.9476,0.9494,0.9521,0.9564,0.9571,0.9583,0.9587,0.959,0.9594,0.9618,0.9624,0.9562,0.9562,0.9562,0,0,0.9251,0.9271,0.9287,0.9327,0.9345,0.9373,0.9361,0.9391,0.9412,0.9413,0.945,0.9464,0.949,0.9532,0.9551,0.9544,0.9612,0.9593,0.9596,0.9598,0.9621,0.9627,0.9633,0.9564,0.9563,0.9563,0,0,0.929,0.9307,0.9339,0.9357,0.9384,0.9395,0.9403,0.943,0.9439,0.9477,0.9478,0.9503,0.955,0.9569,0.9585,0.963,0.9629,0.9639,0.9659,0.9682,0.9687,0.9691,0.9708,0.9713,0.9643,0.9643,0.9643,0,0.9303,0.9345,0.9355,0.9386,0.9403,0.9404,0.9436,0.9453,0.9487,0.9499,0.9491,0.9551,0.9569,0.9615,0.9626,0.9638,0.9647,0.9636,0.9685,0.969,0.9694,0.971,0.9716,0.9644,0.9643,0.9643,0.9643,0,0.936,0.939,0.9412,0.9445,0.9465,0.9496,0.951,0.9529,0.9533,0.9545,0.9584,0.9605,0.9636,0.9647,0.9651,0.9694,0.9689,0.9683,0.9669,0.9701,0.9716,0.9722,0.9645,0.9645,0.9644,0.9644,0,0,0.9404,0.9443,0.9451,0.9466,0.9496,0.9519,0.955,0.958,0.9596,0.962,0.9646,0.9686,0.9681,0.9699,0.9705,0.9726,0.9761,0.9717,0.9718,0.9725,0.9809,0.9813,0.982,0.976,0.9761,0.9762,0.9807,0,0.9446,0.9502,0.9511,0.956,0.9587,0.9589,0.9616,0.9637,0.9649,0.9674,0.9687,0.9715,0.9706,0.9717,0.9737,0.9752,0.9778,0.9749,0.9785,0.9786,0.9778,0.9828,0.9833,0.9873,0.9813,0.9814,0.9814,0,0.9503,0.9528,0.9579,0.9605,0.9617,0.9641,0.967,0.9694,0.9718,0.9725,0.9745,0.9749,0.9781,0.9765,0.981,0.979,0.9805,0.9815,0.9817,0.982,0.9802,0.9833,0.9887,0.9893,0.9824,0.9823,0.9822,0,0.953,0.9577,0.9613,0.9626,0.9658,0.9675,0.9689,0.9712,0.973,0.9755,0.9766,0.9795,0.981,0.9832,0.9844,0.9831,0.9888,0.9873,0.9895,0.9894,0.9907,0.9906,0.9964,0.9916,0.9916,0.9916,0.9916,0,0.9576,0.9607,0.9626,0.9649,0.9684,0.9694,0.9729,0.9742,0.9763,0.9788,0.9791,0.9814,0.9828,0.9853,0.9862,0.9898,0.9905,0.9912,0.9914,0.9912,0.9911,0.9922,0.992,0.9918,0.9917,0.9917,0.9917,0,0.9612,0.9626,0.9666,0.9693,0.97,0.9725,0.9748,0.977,0.9782,0.9813,0.9821,0.984,0.987,0.9884,0.9921,0.9927,0.9968,0.9968,0.996,0.9961,0.9982,0.998,1.0049,1.0059,1.0005,1.0005,1.0006,0,0.964,0.9665,0.9694,0.9711,0.9726,0.9753,0.9771,0.9783,0.9801,0.9831,0.9849,0.988,0.9904,0.9953,0.997,0.9998,0.9999,1.0021,1.0003,1.0,0.9999,0.9998,1.0,1.0024,1.0025,1.0025,1.0026,0,0.9689,0.9695,0.9721,0.975,0.9772,0.9795,0.9817,0.9831,0.9846,0.9867,0.9898,0.9917,0.9955,0.9985,1.0015,1.0029,1.003,1.0031,1.0038,1.0036,1.003,1.0034,0.9969,1.003,1.0029,1.0029,1.0029,1.0029,0.9723,0.9744,0.9768,0.9797,0.9816,0.9837,0.9859,0.9873,0.9899,0.9931,0.9936,0.9969,0.9993,1.0033,1.0048,1.0075,1.0069,1.0079,1.0081,1.0083,1.0085,1.0026,1.008,1.008,1.008,1.008,1.008,0,0.9772,0.9788,0.9814,0.9846,0.9869,0.9867,0.9892,0.9911,0.9941,0.9963,0.9987,1.0023,1.0052,1.0071,1.0101,1.0118,1.0119,1.0125,1.0124,1.0128,1.0088,1.0079,1.0124,1.0124,1.0124,1.0124,1.0124,1.0124,0.98,0.9837,0.9845,0.9891,0.9906,0.9939,0.9953,0.9972,0.999,1.003,1.0054,1.0066,1.0087,1.0118,1.0145,1.015,1.0161,1.0168,1.0172,1.0135,1.013,1.0126,1.0118,1.017,1.017,1.021,1.021,1.021]},{"header":{"parameterUnit":"m.s-1","parameterCategory":1,"la1":30.2991,"la2":30.254,"lo1":-89.0895,"lo2":-89.0444,"dy":0.0017,"dx":0.0017,"nx":28,"ny":28,"refTime":"2024-05-24T21:00:00:Z","depth":0,"parameterNumber":3,"parameterNumberName":"V-component_of_WINDS"},"data":[0,0,0,0,0,0,0,0,0,0,0,0,0,0,0,0,0,0,0,0,0,0,0,0,0,0,0,0,0,0,0,0,0,0,0,0,0,0,0,0,0,0,0,0,0,0,0,0,0,0,0,0,0,0,0,0,0,0,1.9763,1.9762,0,1.9744,1.9743,1.9743,1.9714,1.9713,1.9713,1.9712,1.9693,1.9693,1.9693,0,0,0,0,0,0,0,0,0,0,0,0,0,1.9773,1.9773,1.9763,1.9762,1.9762,1.9744,1.9743,1.9743,1.9714,1.9713,1.9713,1.9712,1.9693,1.9693,1.9693,0,0,0,0,0,0,0,0,0,0,0,0,0,1.9763,1.9773,1.9763,1.9745,1.9744,1.9744,1.9743,1.9743,1.9714,1.9713,1.9713,1.9712,1.9693,1.9693,1.9693,1.9708,0,0,1.9693,1.9693,0,0,0,0,0,0,0,0,1.9764,1.9763,1.9748,1.9747,1.9745,1.973,1.974,1.9731,1.9714,1.9725,1.9712,1.9712,1.9706,1.9705,1.9703,1.9707,1.9707,1.9693,1.9693,1.9693,1.9693,0,0,0,0,0,0,0,1.9764,1.9763,1.9755,1.9748,1.9746,1.9739,1.9736,1.9738,1.972,1.9724,1.9722,1.972,1.9705,1.9703,1.9702,1.9706,1.9693,1.9693,1.9693,1.9693,1.9723,1.9724,0,0,0,0,0,0,1.9768,1.9764,1.9756,1.9755,1.9752,1.9739,1.9736,1.9736,1.972,1.9717,1.9721,1.9719,1.9704,1.9702,1.9702,1.9719,1.9693,1.9693,1.9693,1.9722,1.9723,1.9724,0,0,0,0,0,0,1.9768,1.9767,1.9756,1.9759,1.9757,1.974,1.9739,1.9736,1.9734,1.9718,1.9714,1.9723,1.9703,1.9702,1.9707,1.9718,1.9693,1.9693,1.9721,1.9723,1.9724,1.9755,0,0,0,0,0,0,1.9769,1.9768,1.9773,1.9759,1.9757,1.9762,1.974,1.9736,1.9734,1.9731,1.9718,1.9715,1.9702,1.9707,1.9707,1.9718,1.9693,1.972,1.9722,1.9723,1.9752,1.9757,1.976,0,0,0,0,0,1.9769,1.9782,1.9774,1.9773,1.9764,1.9763,1.9762,1.9746,1.9735,1.9741,1.973,1.9716,1.9717,1.9708,1.9708,1.9718,1.972,1.9722,1.9723,1.9751,1.9756,1.976,0,0,0,0,0,0,1.9798,1.978,1.977,1.978,1.9773,1.9758,1.9765,1.9752,1.9749,1.9746,1.9727,1.9725,1.9733,1.9726,1.9716,1.9733,1.9716,1.9718,1.9737,1.9742,1.9746,1.9747,1.9693,0,0,0,0,0,1.9806,1.9807,1.9791,1.9801,1.9798,1.9782,1.9781,1.977,1.9762,1.9759,1.9749,1.9743,1.9742,1.9741,1.9739,1.9751,1.9748,1.9758,1.9762,1.9766,1.9768,1.9774,1.9779,1.9731,1.973,1.973,0,0,1.9821,1.9811,1.9813,1.9806,1.98,1.9802,1.978,1.9782,1.9784,1.976,1.9765,1.9757,1.9748,1.9757,1.9761,1.9752,1.978,1.9768,1.9771,1.9771,1.9777,1.9781,1.9785,1.9732,1.9732,1.9731,0,0,1.985,1.9843,1.985,1.9845,1.9835,1.9825,1.9827,1.9814,1.9808,1.9812,1.9795,1.9796,1.9794,1.9789,1.9786,1.9814,1.9801,1.9814,1.9834,1.9841,1.9845,1.9848,1.9859,1.9863,1.9816,1.9816,1.9816,0,1.9871,1.9873,1.9856,1.986,1.9857,1.9836,1.9844,1.9839,1.983,1.9829,1.9819,1.9817,1.9809,1.9817,1.9824,1.9822,1.9824,1.9815,1.9846,1.9849,1.9851,1.9861,1.9865,1.9817,1.9817,1.9817,1.9817,0,1.9899,1.99,1.9907,1.9899,1.9897,1.9903,1.9888,1.9888,1.9877,1.9868,1.9873,1.9863,1.9859,1.986,1.9849,1.9867,1.9862,1.9849,1.9832,1.9858,1.9867,1.9871,1.982,1.9819,1.9819,1.9818,0,0,1.9946,1.9928,1.9931,1.9928,1.9916,1.9917,1.9922,1.9918,1.9919,1.9914,1.9918,1.9917,1.9905,1.9902,1.9891,1.9896,1.992,1.9883,1.9882,1.9891,1.9939,1.995,1.9954,1.9911,1.9912,1.9912,1.994,0,1.9973,1.9981,1.9966,1.9977,1.9979,1.9959,1.9963,1.9957,1.9948,1.9948,1.9939,1.9939,1.9923,1.9921,1.9926,1.9916,1.993,1.9914,1.9915,1.9915,1.9919,1.9959,1.9969,1.9997,1.9944,1.9944,1.9945,0,2.0006,2.0002,2.0014,2.0002,2.0002,2.0006,2.0002,2.0002,1.9995,1.9988,1.9985,1.9971,1.9976,1.9959,1.9965,1.9955,1.9954,1.995,1.995,1.995,1.9932,1.9961,2.0005,2.0009,1.995,1.995,1.9949,0,2.004,2.0038,2.0045,2.0042,2.0028,2.0032,2.0026,2.0018,2.0017,2.0013,2.0012,2.0009,2.0008,2.0006,1.9992,1.9981,2.0,1.9982,1.9995,1.9995,2.0,2.0,2.0046,1.9999,1.9999,1.9999,1.9999,0,2.0072,2.008,2.006,2.0064,2.0073,2.0056,2.0065,2.0057,2.005,2.0053,2.0035,2.0038,2.0019,2.002,2.0009,2.0016,2.0015,2.0011,2.0008,2.0013,2.0013,2.0012,2.001,2.0,2.0,1.9999,1.9999,0,2.0112,2.0098,2.0105,2.0091,2.0088,2.0095,2.0084,2.0087,2.0078,2.0081,2.0081,2.0066,2.0067,2.0052,2.005,2.0042,2.0055,2.0048,2.0057,2.0055,2.007,2.0069,2.0117,2.0123,2.0072,2.0072,2.0073,0,2.0134,2.014,2.0127,2.0128,2.0123,2.0124,2.0123,2.0107,2.0106,2.0099,2.0103,2.0102,2.01,2.0102,2.0091,2.0089,2.0082,2.0099,2.0082,2.0087,2.0084,2.0084,2.0085,2.0103,2.0104,2.0104,2.0105,0,2.0174,2.0167,2.0167,2.0164,2.0163,2.016,2.0156,2.0157,2.0139,2.014,2.014,2.0139,2.0136,2.0136,2.0132,2.0126,2.0113,2.011,2.0113,2.0119,2.0124,2.0122,2.0068,2.0109,2.0109,2.0109,2.0108,2.0108,2.0206,2.0211,2.0203,2.0202,2.0198,2.0194,2.0197,2.0188,2.0188,2.0185,2.0175,2.0177,2.017,2.0163,2.0159,2.0161,2.0152,2.0157,2.0158,2.0159,2.0162,2.0124,2.016,2.016,2.0159,2.0159,2.0159,0,2.0246,2.024,2.024,2.0235,2.0235,2.0222,2.0217,2.0218,2.022,2.0215,2.0214,2.0214,2.0214,2.0203,2.0201,2.0204,2.0198,2.0205,2.0204,2.0204,2.017,2.0167,2.021,2.021,2.021,2.021,2.021,2.021,2.0267,2.0274,2.0267,2.0272,2.0265,2.0267,2.0266,2.0263,2.0258,2.026,2.0259,2.0252,2.0245,2.0242,2.0241,2.0238,2.0239,2.0247,2.0242,2.0211,2.0206,2.0201,2.0199,2.0247,2.0247,2.0276,2.0276,2.0277]}]]